This is the latest recevied weather packets stored in our database for station/object YF9UAG-17. If no packets are shown the sender has not sent any weather packets the latest 10 day(s).
| Time | Temp. | Humidity | Pressure | Rain* | Wind** | Luminosity | Snow |
|---|---|---|---|---|---|---|---|
| 1777877066 | 32.78° C | 56% | 940 hPa | - | - | 0 W/m² | - |
| 1777876144 | 32.22° C | 56% | 940 hPa | - | - | 0 W/m² | - |
| 1777875222 | 32.22° C | 58% | 940 hPa | - | - | 0 W/m² | - |
| 1777874300 | 31.67° C | 58% | 941 hPa | - | - | 0 W/m² | - |
| 1777873378 | 31.67° C | 58% | 941 hPa | - | - | 0 W/m² | - |
| 1777872456 | 30.56° C | 57% | 941 hPa | - | - | 0 W/m² | - |
| 1777871534 | 30.56° C | 59% | 941 hPa | - | - | 0 W/m² | - |
| 1777870612 | 30.56° C | 59% | 941 hPa | - | - | 0 W/m² | - |
| 1777869690 | 29.44° C | 61% | 942 hPa | - | - | 0 W/m² | - |
| 1777868768 | 29.44° C | 65% | 942 hPa | - | - | 0 W/m² | - |
| 1777867846 | 29.44° C | 67% | 942 hPa | - | - | 0 W/m² | - |
| 1777866924 | 28.89° C | 67% | 942 hPa | - | - | 0 W/m² | - |
| 1777866002 | 28.33° C | 68% | 943 hPa | - | - | 0 W/m² | - |
| 1777865080 | 28.33° C | 68% | 943 hPa | - | - | 0 W/m² | - |
| 1777864158 | 28.33° C | 68% | 943 hPa | - | - | 0 W/m² | - |
| 1777863236 | 28.33° C | 67% | 943 hPa | - | - | 0 W/m² | - |
| 1777862314 | 28.33° C | 68% | 943 hPa | - | - | 0 W/m² | - |
| 1777861392 | 27.78° C | 68% | 943 hPa | - | - | 0 W/m² | - |
| 1777860470 | 27.78° C | 69% | 943 hPa | - | - | 0 W/m² | - |
| 1777859548 | 28.33° C | 73% | 943 hPa | - | - | 0 W/m² | - |
| 1777858626 | 27.78° C | 68% | 943 hPa | - | - | 0 W/m² | - |
| 1777857704 | 27.22° C | 69% | 943 hPa | - | - | 0 W/m² | - |
| 1777856782 | 27.78° C | 69% | 943 hPa | - | - | 0 W/m² | - |
| 1777855860 | 27.22° C | 69% | 943 hPa | - | - | 0 W/m² | - |
| 1777854938 | 27.22° C | 68% | 942 hPa | - | - | 0 W/m² | - |
* Rain since midnight (hover to see other rain measurements)
** Current wind speed in m/s (hover to see current wind gust speed)